Miscellaneous Local Product
Issued by NWS Hastings, NE

Home | Current Version | Previous Version | Graphics & Text | Print | Product List | Glossary On
Versions: 1 2 3 4 5 6 7 8 9 10 11 12 13 14 15 16 17 18 19 20 21 22 23 24 25 26 27 28 29 30 31 32 33 34 35 36 37 38 39 40 41 42 43 44 45 46 47 48 49 50
000
AXUS43 KGID 270002
MISGRI

GID CWA HOURLY WEATHER ROUNDUP
NATIONAL WEATHER SERVICE HASTINGS NE
700 PM CDT THU MAY 26 2016

NOTE: "FAIR" INDICATES FEW OR NO CLOUDS BELOW 12,000 FEET WITH NO
SIGNIFICANT WEATHER AND/OR OBSTRUCTIONS TO VISIBILITY.

...SOUTH CENTRAL NEBRASKA...

CITY           SKY/WX    TMP DP  RH WIND       PRES   REMARKS
GRAND ISLAND   CLOUDY    62  55  77 SW8       29.73F
HASTINGS       CLOUDY    62  56  80 S9G18     29.73R
KEARNEY        CLOUDY    64  55  72 SE12      29.72F
ORD            CLOUDY    73  52  47 E13       29.73F
YORK           TSTM      63  59  88 SE10      29.84F
AURORA         TSTM      61  59  92 S10G17    29.81F
LEXINGTON      CLOUDY    71  58  64 E12       29.74R
HOLDREGE       LGT RAIN  66  58  76 E16G28    29.72F
HEBRON         CLOUDY    61  60  97 E14       29.75F

...NEBRASKA PANHANDLE...

CITY           SKY/WX    TMP DP  RH WIND       PRES   REMARKS
CHADRON        CLOUDY    67  48  50 SW7       29.83S
ALLIANCE       CLOUDY    62  41  46 N15G23    29.84F
SCOTTSBLUFF    CLOUDY    63  41  44 NW13      29.86S
SIDNEY         CLOUDY    60  41  49 N17       29.85F

...WESTERN AND NORTH CENTRAL NEBRASKA...

CITY           SKY/WX    TMP DP  RH WIND       PRES   REMARKS
VALENTINE      PTSUNNY   76  46  34 N9        29.77S
AINSWORTH      MOSUNNY   73  51  47 E7        29.79R
ONEILL         CLOUDY    74  54  48 E9        29.80R
BROKEN BOW     CLOUDY    74  49  41 E10G20    29.75S
IMPERIAL       LGT RAIN  64  49  57 NE13      29.72F
NORTH PLATTE   CLOUDY    74  48  39 E14       29.74F
MCCOOK         PTSUNNY   69  58  67 E21G28    29.62F THUNDER

...EASTERN NEBRASKA...

CITY           SKY/WX    TMP DP  RH WIND       PRES   REMARKS
NORFOLK        CLOUDY    71  57  61 E9        29.81R
SO SIOUX CITY  CLOUDY    73  59  61 MISG      29.80F
TEKAMAH        CLOUDY    69  56  62 SE21G26   29.79S
COLUMBUS       CLOUDY    66  54  63 SE17G30   29.83S
ALBION         CLOUDY    73  55  54 E18G24    29.77F
OMAHA EPPLEY   LGT RAIN  65  58  78 E33G44    29.83R
MILLARD        RAIN      67  57  69 SE22G33   29.81R
LINCOLN        RAIN      63  60  90 SW6       29.87R FOG
NEBRASKA CITY  CLOUDY    61  60  96 NE26G36   29.85F
BEATRICE       LGT RAIN  63  58  86 N3        29.87R
FALLS CITY     LGT RAIN  66  62  87 N13       29.82R

...NORTHERN KANSAS...

CITY           SKY/WX    TMP DP  RH WIND       PRES   REMARKS
GOODLAND       NOT AVBL
HILL CITY      CLOUDY    76  57  51 E12       29.61F
NORTON         CLEAR     73  50  43 E15       29.63F
PHILLIPSBURG   SUNNY     70  59  68 NE12G18   29.64F
SMITH CENTER   SUNNY     68  57  68 NE16      29.66F
BELOIT         SUNNY     66  61  82 NE9       29.67R
HAYS           PTSUNNY   63  57  82 SW12      29.66R
RUSSELL        CLOUDY    70  60  70 SE18      29.61S
CONCORDIA      CLOUDY    64  58  80 E15G25    29.66S
SALINA         TSTM      65  62  90 E14G22    29.70F
TOPEKA         LGT RAIN  64  60  87 E14G23    29.79R



USA.gov is the U.S. government's official web portal to all federal, state and local government web resources and services.